Hourly Data Report for October 03, 2017

All times are specified in Local Standard Time (LST). Add 1 hour to adjust for Daylight Saving Time where and when it is observed.

CHURCHILL
MANITOBA

58°44'21.000" N
94°03'59.000" W
29.30 m
5060595
71618
YYQ

Download Data

Hourly Data (October 2017)
Hourly Data Report for October 3, 2017
Temp Definition
°C
Dew Point Temp Definition
°C
Rel Hum Definition
%
Wind Dir Definition
10's deg

Wind Spd Definition
km/h
Visibility Definition
km
Stn Press Definition
kPa
Hmdx Definition


Wind Chill Definition


Weather Definition


TIME
00:00 Legend Double Dagger 3.5 0.0 78 35 30 16.1 101.11     LegendNANA
01:00 Legend Double Dagger 3.3 -0.1 79 34 28 16.1 101.17     LegendNANA
02:00 Legend Double Dagger 3.1 0.5 83 33 21 16.1 101.18     LegendNANA
03:00 Legend Double Dagger 2.3 0.4 87 32 22 16.1 101.22     LegendNANA
04:00 Legend Double Dagger 3.5 0.9 83 33 35 16.1 101.25     LegendNANA
05:00 Legend Double Dagger 2.7 1.2 90 36 35 16.1 101.33     Rain
06:00 Legend Double Dagger 2.5 -2.9 68 36 34 16.1 101.44     LegendNANA
07:00 Legend Double Dagger 2.0 -3.5 67 34 30 16.1 101.51     LegendNANA
08:00 Legend Double Dagger 2.1 -2.7 71 33 22 16.1 101.56     LegendNANA
09:00 Legend Double Dagger 2.3 -3.1 68 33 26 16.1 101.61     LegendNANA
10:00 Legend Double Dagger 2.5 -4.5 60 34 28 16.1 101.65     LegendNANA
11:00 Legend Double Dagger 2.7 -3.8 62 32 24 16.1 101.65     LegendNANA
12:00 Legend Double Dagger 3.4 -3.5 61 27 15 16.1 101.63     LegendNANA
13:00 Legend Double Dagger 4.4 -4.8 51 28 26 16.1 101.58     LegendNANA
14:00 Legend Double Dagger 4.8 -4.6 51 30 22 16.1 101.54     LegendNANA
15:00 Legend Double Dagger 4.8 -3.9 53 28 18 16.1 101.48     LegendNANA
16:00 Legend Double Dagger 5.0 -3.8 53 26 22 16.1 101.45     LegendNANA
17:00 Legend Double Dagger 5.1 -2.8 57 25 15 16.1 101.39     LegendNANA
18:00 Legend Double Dagger 3.3 -2.3 67 23 11 16.1 101.35     LegendNANA
19:00 Legend Double Dagger 3.0 -1.0 75 20 11 16.1 101.24     LegendNANA
20:00 Legend Double Dagger 3.2 -1.0 74 20 9 16.1 101.12     LegendNANA
21:00 Legend Double Dagger 3.5 -0.2 77 20 13 16.1 101.03     LegendNANA
22:00 Legend Double Dagger 3.1 0.4 82 19 13 16.1 100.97     Rain
23:00 Legend Double Dagger 3.3 1.7 89 18 15 16.1 100.81     LegendNANA

Notes on Data Quality.

Legend

  • E = Estimated
  • M = Missing
  • NA = Not Available
  • ‡ = Partner data that is not subject to review by the National Climate Archives
Date modified: